[Date Prev][Date Next][Thread Prev][Thread Next] - [Date Index][Thread Index][Author Index]
2 Line ISS Keps 1-3
- Subject: [sarex] 2 Line ISS Keps 1-3
- From: "Dave Larsen PhD" <doc@xxxxxxxxxxx>
- Date: Mon, 3 Jan 2005 01:41:04 -0800
ISS
1 25544U 98067A 05003.34592593 .00022631 00000-0 17169-3 0 5052
2 25544 51.6402 23.8008 0003378 157.2210 41.3528 15.72249910349762
----
Via the sarex mailing list at AMSAT.ORG courtesy of AMSAT-NA.
To unsubscribe, send "unsubscribe sarex" to Majordomo@amsat.org
AMSAT Home